Vorticity
nan nan nan nan nan nan nan nan nan nan nan nan nan nan nan nan nan nan nan nan nan nan nan nan nan nan nan nan nan nan nan nan nan nan nan nan nan nan nan nan nan nan nan nan nan nan nan nan nan nan nan nan nan nan nan nan nan nan nan nan nan nan nan nan nan nan nan nan nan nan nan nan nan nan nan nan nan nan nan nan nan nan nan nan nan nan nan nan nan nan nan nan nan nan nan nan nan nan nan nan nan nan nan
nan 15 16 15 13 9 8 9 10 10 10 8 6 7 9 9 10 10 10 9 7 8 11 12 7 5 5 3 4 5 5 5 6 6 6 7 7 8 9 9 7 5 7 8 7 8 9 8 7 8 11 12 11 12 12 9 4 3 8 9 8 12 17 17 15 13 2 -8 -4 6 10 12 15 12 6 2 4 8 8 3 1 4 9 12 13 10 8 10 11 10 9 7 6 9 12 10 6 4 4 7 9 11 nan
nan 18 17 15 13 9 8 9 9 7 4 2 5 10 10 8 8 9 8 8 8 10 10 9 6 4 4 4 5 5 4 3 6 7 6 7 6 7 8 9 9 7 7 9 9 9 8 6 7 9 11 12 12 14 14 11 5 2 3 4 5 11 16 16 14 15 5 -7 -3 6 9 10 13 12 7 5 5 9 7 3 1 5 10 13 15 13 11 12 13 11 8 5 4 7 10 9 9 5 4 7 10 11 nan
nan 20 18 15 12 9 8 8 8 5 1 2 8 11 8 8 7 7 7 8 9 10 9 8 6 4 3 6 8 6 4 4 5 5 5 7 8 9 8 7 10 10 7 7 8 9 8 8 8 10 11 12 13 13 13 13 10 3 1 4 4 4 9 14 17 16 6 -5 -1 5 7 9 14 11 7 5 6 9 7 3 3 7 12 14 12 11 12 11 11 11 9 4 2 5 8 8 9 6 7 8 12 12 nan
nan 18 18 14 11 8 7 8 8 6 5 5 5 5 6 7 6 7 8 9 10 10 8 8 7 5 3 4 6 7 8 7 3 2 6 9 10 10 8 6 8 12 9 6 6 9 10 9 9 10 11 11 12 11 11 13 14 9 6 8 7 4 2 7 16 20 7 -4 1 5 5 9 13 11 7 4 6 8 7 5 6 8 12 13 9 8 10 8 7 10 11 6 3 1 4 7 8 8 8 9 13 12 nan
nan 16 16 15 11 8 7 6 6 5 3 4 6 6 7 8 8 8 8 8 9 9 9 8 7 6 4 4 4 8 11 8 4 3 7 9 10 11 10 8 10 13 10 7 5 8 11 11 10 9 11 11 12 10 10 12 16 16 12 11 14 11 2 2 13 21 10 -1 -0 3 6 9 9 8 6 3 5 8 9 8 8 9 12 12 9 7 5 7 9 11 10 8 5 3 2 4 6 8 8 9 11 11 nan
nan 18 16 13 10 8 6 5 6 5 3 4 6 8 8 9 9 8 7 7 8 9 10 9 8 7 6 4 2 7 11 10 6 5 8 10 11 11 9 9 12 12 10 8 7 11 14 12 10 9 10 11 12 12 11 11 14 19 17 15 19 20 9 3 7 17 14 3 -3 0 8 11 8 7 5 1 4 8 10 10 9 10 11 10 8 6 3 7 10 11 10 11 9 7 -0 -1 3 9 8 8 9 10 nan
nan 19 17 12 10 8 6 6 6 6 5 4 5 8 9 9 8 6 4 7 10 11 11 10 8 7 6 4 3 5 10 12 7 4 6 8 7 6 6 8 11 11 8 7 8 11 12 10 8 9 9 11 13 13 10 9 11 16 19 21 25 23 14 7 2 11 17 8 -2 -1 6 10 5 6 7 4 6 10 11 8 8 10 10 9 8 5 4 6 10 11 13 13 13 9 0 -4 1 7 8 8 9 10 nan
nan 19 15 12 10 8 7 7 7 7 6 6 7 8 8 8 7 5 4 8 12 12 11 10 8 6 5 4 5 7 10 10 5 3 4 4 4 4 5 7 8 6 4 5 6 7 8 7 7 6 7 9 12 12 10 8 9 13 19 25 29 24 14 8 -0 8 18 12 5 -2 1 8 4 5 11 11 8 8 10 8 8 9 9 8 7 6 5 6 9 11 12 14 15 8 1 -2 2 6 9 8 8 8 nan
nan 19 14 10 9 7 7 8 8 6 6 7 8 7 6 8 8 6 7 10 11 12 11 9 7 5 4 4 6 10 11 8 4 2 2 4 5 5 6 7 6 5 5 5 6 7 7 8 9 7 6 8 11 12 10 8 8 12 18 24 27 22 14 8 4 8 15 13 8 -0 -1 8 9 4 7 12 10 6 7 8 8 8 10 10 6 3 4 5 8 10 10 13 18 11 2 2 5 8 9 8 6 6 nan
nan 19 13 10 8 7 8 9 9 6 6 7 8 7 6 6 6 7 9 11 12 11 11 9 7 4 3 4 9 11 10 10 5 1 3 6 5 6 8 7 7 6 6 6 7 6 6 8 10 9 7 8 10 11 10 9 9 11 15 18 22 22 16 8 7 9 11 8 7 5 3 8 13 4 0 9 8 5 5 6 7 9 12 13 8 3 2 3 6 10 11 13 18 14 3 2 5 9 8 6 6 6 nan
nan 19 13 9 6 6 8 9 8 7 6 6 7 7 6 5 5 7 10 11 11 10 10 9 7 4 3 5 9 10 10 9 6 1 2 6 6 8 10 8 7 6 6 6 5 4 5 7 10 11 8 7 9 11 12 11 10 9 11 13 17 20 17 9 4 7 11 6 8 9 6 8 14 5 -4 6 7 5 5 5 7 9 12 13 11 10 4 0 0 7 12 13 15 12 7 5 4 8 7 4 5 7 nan
nan 17 11 10 7 7 7 8 7 7 7 6 6 7 5 5 6 8 9 11 10 10 11 9 7 4 2 4 6 10 12 10 7 2 2 5 6 9 12 11 10 7 5 5 4 4 5 9 11 10 7 6 7 11 14 12 10 8 8 10 13 17 17 10 3 6 12 9 11 10 7 7 12 4 -3 6 6 5 5 4 5 8 10 10 12 15 8 -0 -3 5 13 13 12 11 10 6 4 7 9 4 3 6 nan
nan 16 12 11 8 7 7 7 7 7 7 6 5 6 6 6 7 8 9 10 10 11 11 9 7 5 4 4 5 10 12 8 7 6 5 4 5 10 13 12 11 7 3 4 6 6 7 10 11 9 6 6 7 11 14 12 10 7 7 9 11 16 16 12 8 8 11 12 13 11 8 5 3 1 2 7 7 6 5 4 4 6 7 9 12 16 11 2 -3 1 9 12 12 11 7 3 3 6 9 8 3 5 nan
nan 15 13 10 8 5 6 8 9 8 7 6 5 7 8 7 7 8 9 10 10 10 10 10 7 6 6 5 4 9 11 6 4 7 7 4 5 11 12 7 8 7 5 6 8 9 8 9 10 10 8 7 6 9 12 12 10 8 7 8 10 13 14 13 13 11 11 12 12 14 13 5 -1 -1 6 9 7 4 6 7 4 2 4 6 11 16 17 9 1 -3 1 7 10 10 6 3 3 5 8 10 7 6 nan
nan 16 13 10 7 5 7 10 9 9 7 7 7 8 8 7 7 8 9 11 10 9 10 11 8 6 7 6 4 9 12 7 3 5 8 6 6 9 9 6 7 9 8 7 8 9 8 8 9 10 9 8 6 7 11 13 12 8 6 6 8 11 12 12 13 13 13 12 12 15 15 9 2 -1 3 7 6 5 9 10 5 0 1 4 8 15 19 15 7 -1 -1 3 6 7 6 5 6 5 6 10 10 8 nan
nan 17 14 10 8 6 9 10 10 10 8 8 8 8 8 8 8 9 10 11 10 10 11 10 8 6 6 6 5 9 11 7 4 5 6 6 7 8 8 8 9 11 10 5 5 7 8 8 9 10 10 9 5 6 10 13 12 8 4 6 7 9 10 10 10 12 13 14 13 15 16 13 8 0 -1 3 6 5 8 10 8 4 2 4 7 12 14 14 10 8 7 7 8 8 7 7 8 5 4 8 11 10 nan
nan 18 15 12 8 8 9 11 11 10 8 8 9 9 8 8 8 9 10 10 11 11 10 9 7 5 5 7 6 10 12 9 7 5 4 6 8 7 6 9 11 14 10 5 4 6 8 8 8 9 10 10 7 6 8 10 11 8 5 6 7 8 9 9 8 9 11 14 15 16 17 16 12 2 -3 1 7 3 1 8 12 10 8 7 6 6 7 7 8 14 15 13 13 12 11 9 9 5 2 5 10 12 nan
nan 17 15 12 9 9 11 11 10 10 9 9 9 9 8 7 8 9 10 10 11 10 9 8 7 6 6 7 7 10 12 10 9 5 3 7 8 5 5 9 11 13 10 6 5 8 8 7 6 7 8 9 8 7 6 7 9 8 7 6 6 8 10 9 7 7 9 12 15 18 18 17 12 3 0 5 9 2 -4 5 12 14 11 6 4 4 5 4 5 10 16 16 15 14 13 12 12 7 2 4 10 11 nan
nan 17 13 10 8 11 12 10 9 9 10 10 10 9 7 6 7 8 9 10 10 9 9 8 7 7 7 7 7 10 12 11 10 7 5 7 7 5 5 8 9 10 8 6 7 9 8 7 4 5 7 8 8 7 6 6 7 7 6 6 6 9 11 11 8 7 8 10 13 18 20 16 9 5 7 9 10 3 -4 3 9 12 9 5 5 6 5 4 3 5 12 14 13 11 10 11 14 12 7 6 8 7 nan
nan 16 12 9 8 10 11 9 8 9 10 10 10 8 7 6 6 8 9 9 10 10 10 8 6 6 7 7 8 10 11 10 10 8 8 8 7 5 4 6 7 9 8 6 8 9 8 7 5 5 7 7 7 7 6 5 6 6 6 7 7 8 10 11 10 7 7 9 10 17 20 14 7 7 11 10 8 4 0 4 7 10 10 7 6 6 5 2 0 4 10 12 12 8 6 7 10 11 9 7 5 5 nan
nan 16 13 10 8 8 8 7 9 9 9 10 9 8 7 6 6 7 8 8 9 11 11 8 6 5 6 8 8 9 10 10 8 8 9 9 7 5 4 5 6 8 8 7 9 10 9 7 4 5 7 7 8 8 7 6 6 7 8 7 6 7 8 10 11 9 7 10 11 17 16 8 5 8 12 10 7 4 3 4 8 12 14 10 5 5 6 3 -1 1 7 11 13 10 7 7 9 7 5 8 9 7 nan
nan 16 15 12 10 6 5 7 9 8 8 8 8 8 8 7 6 7 6 5 9 13 12 8 6 6 7 9 9 8 10 10 7 7 9 9 7 4 3 4 6 8 9 8 9 11 11 7 4 4 8 8 8 8 8 7 7 8 8 7 6 7 9 9 11 11 8 9 10 16 15 6 3 8 12 12 8 6 5 4 7 13 15 12 7 5 5 5 3 -0 1 7 12 11 9 10 10 6 5 10 13 9 nan
nan 17 16 14 11 5 4 7 9 8 7 7 8 10 10 8 7 6 6 6 10 13 10 7 8 7 8 10 9 9 10 10 8 8 8 7 7 6 4 4 6 9 9 7 9 11 10 7 5 6 8 9 9 8 9 8 8 9 9 8 7 8 9 10 11 12 9 6 9 15 14 9 6 9 11 10 8 9 8 5 6 10 11 10 9 7 5 6 8 3 -1 3 8 12 12 11 9 8 9 11 11 9 nan
nan 18 15 13 11 7 5 7 10 9 7 8 9 11 10 7 6 6 7 9 11 11 8 7 7 7 8 11 10 10 11 10 10 9 7 6 8 9 6 4 6 7 6 7 9 10 9 8 7 8 10 10 10 9 9 9 10 10 9 8 8 8 9 11 12 11 8 8 11 14 14 13 10 8 7 8 10 10 8 7 4 4 6 7 8 9 8 7 9 6 1 1 4 9 11 10 9 9 10 10 9 8 nan
nan 19 15 13 11 8 7 8 10 10 9 9 10 11 8 6 7 8 8 9 9 9 8 7 6 5 9 12 10 9 10 10 11 10 7 6 7 9 8 6 5 6 7 8 8 8 8 8 7 8 10 12 11 11 10 10 10 10 10 9 8 8 9 10 11 9 9 12 16 16 14 14 13 9 5 6 10 11 9 6 1 0 3 4 6 7 6 5 8 8 3 2 3 7 10 10 9 10 10 9 8 7 nan
nan 20 16 13 11 9 8 9 10 10 9 9 10 10 8 7 8 8 7 8 9 8 7 7 5 5 9 12 10 8 9 10 11 9 7 7 5 7 9 8 7 8 8 7 6 6 7 8 7 8 10 11 11 10 11 11 10 9 10 10 10 9 9 10 9 10 13 15 17 14 13 15 15 13 7 5 8 13 12 7 1 -0 2 1 3 3 1 1 6 9 5 3 3 6 8 10 10 10 10 10 10 6 nan
nan 20 16 13 11 10 10 10 10 9 9 11 12 11 8 7 7 6 7 8 8 7 7 7 5 6 10 11 10 8 8 9 9 9 8 8 6 6 8 9 8 8 8 6 6 6 5 6 6 8 10 11 9 7 8 11 11 9 9 10 11 12 12 10 8 10 16 17 14 10 11 15 18 17 11 5 5 12 14 9 3 2 4 2 -0 -0 -1 -2 3 7 6 5 5 5 7 7 9 10 10 11 11 7 nan
nan 20 15 13 12 11 10 10 10 9 9 11 12 10 6 6 6 7 8 9 9 8 7 6 5 7 9 10 10 8 7 8 8 8 8 8 7 5 6 8 9 9 8 6 6 8 7 4 3 7 11 10 6 5 8 10 10 9 9 10 11 13 12 10 9 12 16 16 12 9 10 12 16 21 19 11 6 9 13 10 6 4 5 5 2 1 -0 -1 0 2 4 7 9 8 6 6 7 9 9 8 10 8 nan
nan 19 15 12 11 10 10 11 11 10 9 10 10 8 5 5 7 9 10 11 11 8 6 6 5 6 8 8 11 10 8 7 7 7 8 8 7 5 5 8 10 9 7 5 6 10 9 4 3 8 11 8 5 5 8 9 9 8 9 10 11 11 11 12 13 13 13 14 12 10 9 7 10 18 21 18 14 11 11 10 8 6 5 6 6 5 2 1 1 -1 1 7 10 9 6 7 8 9 7 5 5 8 nan
nan 18 14 12 10 10 10 11 10 9 9 10 10 8 6 7 8 9 10 12 11 9 7 6 6 7 6 7 10 12 9 7 6 6 8 9 7 5 6 9 9 8 7 6 6 9 9 4 3 9 11 7 5 6 8 8 7 8 9 10 9 9 10 12 12 11 12 14 14 11 6 4 6 10 18 22 22 15 10 11 10 8 6 5 6 8 7 4 3 -2 -1 6 9 10 10 10 9 8 6 6 5 5 nan
nan 15 13 11 10 9 9 9 9 9 9 10 11 10 8 8 9 10 11 11 10 8 7 6 7 7 7 8 9 10 9 8 7 6 7 8 5 3 6 10 12 11 9 8 7 8 7 4 4 8 9 8 6 8 10 7 6 7 10 9 7 6 7 8 7 10 15 15 16 11 5 3 3 6 12 18 21 19 17 14 11 9 8 6 5 7 8 6 6 0 -1 5 7 7 11 14 11 6 6 7 6 3 nan
nan 13 11 10 9 9 9 8 8 8 9 10 11 9 8 9 10 11 10 10 9 8 5 6 7 9 10 9 8 10 11 9 7 6 6 7 5 3 5 10 13 13 10 9 8 9 8 7 6 5 6 7 5 8 11 10 8 7 8 7 5 4 5 6 6 12 18 16 15 12 7 5 4 4 7 10 13 18 21 19 15 12 10 8 7 6 7 7 5 3 3 6 6 6 9 14 14 9 6 6 6 3 nan
nan 12 10 10 9 9 9 9 8 8 9 9 10 10 9 9 10 10 9 9 9 7 6 6 6 9 11 9 8 10 11 9 8 6 6 6 6 6 7 9 10 11 11 11 10 9 9 8 7 6 6 6 5 8 10 10 8 8 9 7 5 4 6 6 7 12 17 16 14 13 9 6 5 6 6 6 8 12 17 17 16 15 13 10 8 8 9 8 2 1 5 7 6 6 8 11 14 12 8 5 4 4 nan
nan 11 10 9 9 9 10 10 9 9 9 10 10 10 10 10 10 9 8 8 8 8 7 6 7 9 9 8 8 9 10 10 10 8 6 6 7 8 8 9 9 9 11 12 10 10 11 9 8 8 8 8 6 7 9 8 6 8 9 7 5 6 8 8 7 10 13 13 14 12 9 8 7 7 8 7 7 9 12 13 11 14 14 10 7 6 8 9 4 1 5 6 5 7 9 10 11 12 10 6 1 3 nan
nan 11 9 9 9 9 9 10 10 9 9 10 10 11 11 10 10 8 8 9 9 8 6 5 6 8 9 8 8 9 9 9 10 9 7 6 7 8 9 10 10 10 10 10 9 11 12 9 9 8 8 9 8 8 9 8 6 6 8 7 7 8 10 10 8 8 10 10 10 10 9 10 9 9 9 10 9 8 10 11 10 11 12 10 7 3 3 5 4 4 7 8 5 5 8 9 10 11 11 9 3 3 nan
nan 11 9 8 8 8 9 10 10 9 10 10 10 10 10 9 9 8 8 9 9 7 6 6 6 7 8 9 9 10 9 8 10 10 8 6 6 8 10 10 10 10 9 9 8 10 11 8 7 6 8 11 10 9 9 8 7 7 8 7 8 8 9 10 9 9 8 7 6 8 10 10 12 12 12 11 11 11 11 11 11 11 12 11 9 5 1 2 5 6 7 8 7 3 4 8 11 11 11 11 9 6 nan
nan 11 9 9 9 9 9 10 10 9 10 10 9 8 8 9 9 9 8 8 8 7 7 7 7 8 9 9 9 11 11 10 11 12 11 9 8 9 10 9 10 10 9 9 9 10 10 8 6 5 7 11 12 10 9 8 9 10 10 8 9 8 7 7 10 10 9 7 6 8 10 10 12 14 14 12 13 14 13 13 12 13 14 14 13 9 5 4 6 9 8 7 6 2 1 6 9 10 9 10 11 9 nan
nan 13 12 10 9 9 10 10 10 9 9 9 9 8 8 9 9 8 8 8 7 7 7 7 7 8 9 9 9 10 12 11 11 12 12 12 10 9 9 9 10 10 9 8 8 10 9 6 6 5 6 11 14 12 9 8 9 10 10 9 9 9 7 7 9 9 8 8 10 10 9 10 10 12 14 13 13 14 15 15 13 13 14 13 12 11 9 7 6 9 10 8 6 3 2 4 5 6 7 9 10 10 nan
nan 16 14 11 9 9 10 11 10 9 8 9 9 9 9 9 9 8 8 8 8 8 8 7 7 8 9 9 9 10 10 9 10 10 10 11 10 8 7 8 9 10 10 9 8 9 7 5 6 5 6 11 14 12 9 9 9 10 11 10 11 10 8 7 8 8 8 10 12 11 9 10 9 10 11 11 12 13 14 13 12 12 13 11 9 9 9 9 9 9 10 10 8 6 4 4 4 4 5 6 8 10 nan
nan 18 14 11 10 10 11 10 9 8 8 9 9 9 9 8 8 8 9 9 8 8 8 8 8 8 9 10 10 9 9 8 9 9 8 9 8 7 6 6 8 9 9 9 9 8 6 5 6 4 5 11 13 13 11 9 8 9 11 12 12 9 7 8 9 9 8 9 10 10 10 9 9 9 9 9 9 11 13 12 11 11 11 10 9 7 7 8 10 10 11 13 12 10 8 6 4 4 6 6 7 9 nan
nan 17 14 12 10 10 11 10 9 8 8 8 8 9 9 9 9 9 9 9 8 8 8 8 8 7 8 10 10 9 9 9 9 9 8 8 8 7 6 6 6 7 9 9 9 9 7 5 5 3 5 10 13 14 11 8 7 8 10 12 13 9 7 9 10 8 6 7 7 8 8 9 9 9 8 8 8 11 12 11 11 11 11 11 10 8 7 8 9 9 10 14 15 14 12 10 7 5 6 7 7 8 nan
nan 16 14 12 10 10 10 9 8 9 9 9 8 9 9 9 8 9 9 9 8 8 8 8 7 8 8 9 9 9 9 10 10 9 9 9 9 9 8 7 7 7 8 9 10 10 8 7 6 5 5 8 11 12 10 8 8 8 10 11 12 10 8 9 9 7 5 7 7 6 5 6 9 10 8 7 8 10 11 11 12 11 11 11 11 10 11 12 13 12 11 12 14 14 13 12 10 6 5 6 6 7 nan
nan 15 14 12 10 10 9 8 9 9 9 9 8 8 9 9 8 9 9 9 9 8 7 7 8 9 10 9 9 9 9 9 10 10 10 10 9 10 10 10 9 8 8 9 10 10 9 8 7 6 6 8 9 10 10 9 10 10 9 9 10 10 10 10 8 6 6 7 8 6 3 3 7 10 9 8 7 8 9 10 11 11 11 11 10 10 12 15 17 18 16 14 13 12 12 12 10 8 6 6 5 6 nan
nan 18 15 13 11 10 9 8 8 9 9 9 8 8 9 9 9 9 9 9 9 8 7 8 8 10 10 9 9 9 9 9 9 9 10 9 9 10 11 11 10 10 9 10 10 10 10 9 8 7 7 8 8 10 11 11 10 11 10 9 9 9 10 10 9 7 7 8 9 8 5 3 3 9 12 9 7 6 7 8 10 11 11 11 10 9 10 14 17 19 19 16 13 11 12 11 10 9 8 7 4 6 nan
nan 25 20 14 11 10 9 8 8 9 9 9 9 9 10 9 9 9 9 9 9 8 7 8 9 10 9 8 7 9 11 10 10 8 8 8 8 8 9 10 10 10 9 9 10 11 11 10 9 7 6 7 9 11 11 10 10 10 11 11 9 9 10 10 9 8 7 8 9 9 8 5 2 7 13 11 8 7 7 7 7 10 10 10 10 9 9 11 12 14 15 13 10 10 10 10 10 10 10 9 5 5 nan
nan 28 24 16 13 10 9 9 8 9 9 9 9 9 10 9 9 9 10 10 9 8 8 8 9 10 9 6 4 8 13 12 10 9 8 7 8 7 7 8 9 9 8 9 9 10 10 10 9 8 7 7 8 10 10 9 9 9 10 10 10 10 10 10 10 9 8 8 8 9 9 7 4 7 12 11 10 9 8 6 5 8 9 9 9 9 8 8 8 9 10 9 7 8 9 9 8 8 8 8 7 5 nan
nan 29 27 19 15 11 10 9 9 9 9 9 9 9 9 9 9 9 10 10 9 9 9 9 9 10 10 7 5 9 12 11 10 9 9 8 8 8 7 7 8 8 8 8 8 9 9 9 9 9 7 7 7 9 10 9 9 8 9 10 10 9 9 9 8 8 9 9 8 8 9 8 6 6 9 10 11 11 11 9 6 6 8 8 7 8 10 9 8 9 9 8 7 8 10 9 8 7 7 7 7 5 nan
nan 32 28 22 15 12 9 9 9 9 9 9 9 8 8 8 8 9 9 9 9 9 10 10 10 10 10 9 8 9 10 10 9 9 9 9 8 8 8 7 8 9 9 7 5 9 12 9 9 9 8 7 7 9 10 9 8 8 8 9 10 9 8 8 5 5 9 10 9 8 9 8 8 7 7 8 9 10 12 12 9 8 10 10 8 8 11 10 8 8 11 10 9 9 10 10 11 9 8 8 8 7 nan
nan 34 30 25 17 11 9 9 9 10 10 9 9 9 8 8 8 9 9 9 8 8 9 9 10 10 10 9 8 8 9 9 9 9 9 9 8 8 8 8 8 9 9 8 6 9 11 9 9 9 8 7 7 9 10 10 9 8 8 9 10 10 9 8 6 5 6 8 9 10 10 9 9 9 8 8 9 9 10 10 10 10 11 11 11 13 15 10 5 3 6 8 10 10 10 10 11 12 11 11 10 10 nan
nan 32 32 29 22 13 9 9 10 10 10 9 8 8 8 8 8 8 8 8 8 8 9 9 9 9 9 8 8 8 9 9 9 9 9 9 9 9 9 9 8 9 10 9 9 9 9 9 9 9 8 8 7 8 10 10 10 8 8 10 10 10 10 10 9 7 6 6 9 11 10 10 9 10 10 10 9 10 9 8 7 7 10 11 13 17 18 13 7 1 -0 1 4 8 9 9 10 12 13 12 11 11 nan
nan 27 32 32 28 18 12 10 10 10 9 9 9 8 8 8 8 9 8 7 7 9 10 9 9 9 9 9 8 7 9 9 9 9 9 9 9 9 9 9 9 8 9 10 10 10 10 9 9 8 8 8 7 8 10 10 10 8 8 10 10 10 10 10 9 8 7 7 10 13 13 10 8 9 12 12 11 10 10 8 5 4 6 9 15 19 18 15 11 6 1 -2 -2 2 7 7 7 9 11 12 12 12 nan
nan 22 28 31 31 23 16 11 9 9 9 9 8 8 8 9 9 9 8 8 8 9 10 9 9 8 9 10 8 7 8 9 9 9 9 9 9 9 10 10 9 8 8 10 11 11 10 9 9 8 8 8 8 8 10 10 10 9 9 9 9 9 10 9 9 9 9 7 10 15 16 13 10 9 10 12 12 11 10 7 4 3 5 7 13 17 16 14 12 11 8 3 -3 -3 3 7 8 7 8 9 10 11 nan
nan 18 21 26 29 26 20 13 9 8 9 9 8 8 9 9 9 9 9 8 8 9 9 9 9 9 9 10 8 7 8 9 9 9 9 10 10 10 10 10 10 8 7 9 10 11 11 10 9 9 8 8 8 9 10 10 10 10 9 9 8 9 8 7 6 8 9 9 10 13 15 14 13 9 8 10 11 12 10 8 5 3 3 7 12 14 12 12 11 10 10 8 3 -4 -3 4 8 8 7 8 9 10 nan
nan 19 17 18 20 23 20 16 13 10 9 8 7 7 8 9 10 10 9 9 8 9 9 10 9 8 8 10 9 8 8 9 9 9 10 10 10 10 9 9 9 8 7 8 9 11 11 10 9 9 9 8 6 9 11 11 10 10 9 9 9 9 8 7 6 7 9 10 10 10 11 12 12 10 8 10 11 11 9 8 6 4 3 6 12 14 12 12 11 11 10 10 9 1 -4 0 6 9 9 10 12 14 nan
nan 21 17 14 13 15 14 15 15 14 12 9 8 7 8 9 11 11 10 9 8 9 10 10 10 9 8 10 10 8 8 9 9 10 10 11 11 10 9 8 8 8 7 7 8 10 10 10 10 9 9 8 6 8 12 11 10 10 9 9 9 8 7 7 9 11 11 10 8 8 8 10 9 10 9 9 10 10 9 9 8 7 5 6 12 15 14 14 15 15 14 14 13 6 -1 1 6 9 10 13 17 21 nan
nan 24 20 16 15 11 8 9 13 19 21 17 13 11 10 10 11 11 10 10 9 9 10 11 11 10 9 9 9 9 8 8 9 10 10 11 11 10 10 9 8 8 7 7 7 8 9 9 10 10 10 9 8 8 9 10 10 9 9 8 8 8 8 9 9 10 11 9 7 7 8 9 9 9 9 9 9 10 10 10 9 10 10 8 11 14 16 19 20 21 20 19 17 10 3 5 7 9 10 12 15 18 nan
nan 25 27 24 20 12 5 5 10 17 22 24 25 20 14 12 11 10 10 10 10 10 11 11 10 10 10 9 9 9 8 8 9 9 10 11 11 10 10 10 9 9 8 7 7 8 8 8 9 10 10 10 9 9 9 9 9 8 8 8 7 8 10 11 10 9 9 8 8 7 8 9 8 9 9 9 9 9 9 9 9 9 10 6 8 13 18 21 23 25 24 23 22 14 9 13 13 14 13 13 13 12 nan
nan nan nan nan nan nan nan nan nan nan nan nan nan nan nan nan nan nan nan nan nan nan nan nan nan nan nan nan nan nan nan nan nan nan nan nan nan nan nan nan nan nan nan nan nan nan nan nan nan nan nan nan nan nan nan nan nan nan nan nan nan nan nan nan nan nan nan nan nan nan nan nan nan nan nan nan nan nan nan nan nan nan nan nan nan nan nan nan nan nan nan nan nan nan nan nan nan nan nan nan nan nan nan
CAPE
nan nan nan nan nan 13 203 203 324 254 132 132 55 0 nan 7 7 148 326 390 390 415 359 355 355 576 674 674 746 692 664 664 629 620 610 610 540 382 369 334 334 333 333 304 304 271 182 182 122 87 63 63 59 20 12 7 7 23 71 156 156 124 18 15 15 15 20 44 44 36 27 27 20 5 17 24 24 22 45 80 80 108 110 78 78 66 62 62 70 70 73 73 70 50 43 12 12 nan nan nan nan nan nan
nan nan nan nan nan 101 281 281 331 191 66 66 16 nan nan 17 17 193 359 380 380 404 372 502 502 649 718 718 791 704 706 706 670 571 621 621 525 424 379 316 316 311 305 272 272 247 104 104 88 73 68 68 68 12 5 6 6 12 60 84 84 61 21 19 19 14 9 60 60 77 42 42 30 8 23 30 30 29 50 85 85 115 106 90 90 61 50 50 61 73 66 66 61 34 24 6 6 nan nan nan nan nan nan
nan nan nan 4 4 208 318 318 311 216 120 120 30 1 nan 21 21 182 347 396 396 420 414 546 546 725 763 763 804 746 686 686 620 552 631 631 535 405 359 348 348 313 250 197 197 198 51 51 18 86 148 148 101 21 3 5 5 17 37 28 28 15 17 27 27 15 2 56 56 79 81 81 55 21 34 40 40 39 59 89 89 98 87 74 74 58 46 46 62 65 56 56 59 37 37 3 3 nan nan nan nan nan nan
nan nan nan 71 71 286 327 327 291 219 274 274 143 9 nan 15 15 133 336 412 412 463 456 560 560 708 808 808 816 758 607 607 600 621 642 642 544 283 290 328 328 291 229 177 177 196 146 146 117 112 157 157 110 23 4 1 1 14 55 43 43 6 17 33 33 17 2 43 43 63 102 102 75 36 42 48 48 52 72 90 90 80 81 64 64 42 46 46 61 60 51 51 52 37 15 25 25 nan nan nan nan nan nan
nan nan nan 154 154 323 337 337 327 272 330 330 188 28 1 4 4 104 324 456 456 507 500 546 546 752 854 854 797 768 616 616 525 660 653 653 583 241 250 308 308 157 108 161 161 134 54 54 46 37 69 69 75 60 31 30 30 33 42 48 48 4 6 30 30 23 6 45 45 52 121 121 103 52 47 59 59 65 84 86 86 71 62 27 27 23 34 34 61 65 54 54 49 38 11 0 0 nan nan nan nan nan nan
nan nan 0 227 227 392 377 377 337 330 312 312 152 31 13 nan nan 65 336 500 500 552 515 560 560 796 867 867 809 779 684 684 451 700 544 544 445 348 305 153 153 86 21 109 109 141 76 76 nan 5 66 66 77 71 37 48 48 54 57 52 52 12 1 23 23 30 12 39 39 47 116 116 103 60 62 68 68 74 82 79 79 72 60 39 39 25 9 9 48 63 61 61 53 41 3 nan nan nan nan nan nan nan nan
nan nan 16 282 282 403 389 389 350 312 269 269 180 57 7 nan nan 70 322 485 485 536 528 633 633 874 880 880 790 758 723 723 351 478 467 467 292 184 263 24 24 30 0 62 62 55 47 47 13 4 26 26 52 61 41 65 65 60 47 42 42 8 0 12 12 31 20 29 29 35 97 97 101 75 58 70 70 73 76 73 73 68 52 43 43 35 17 17 26 44 58 58 54 38 19 nan nan nan nan nan nan nan nan
nan nan 48 293 293 414 430 430 389 319 253 253 234 106 32 15 15 92 331 554 554 548 568 767 767 858 861 861 802 768 613 613 411 570 531 531 200 166 199 85 85 11 43 51 51 nan 0 0 1 20 31 31 48 20 20 35 35 54 43 31 31 6 nan 3 3 28 37 25 25 25 83 83 78 87 48 76 76 76 74 72 72 63 54 53 53 47 33 33 26 39 52 52 42 24 9 nan nan nan nan nan nan nan nan
nan nan 88 329 329 425 441 441 340 302 264 264 241 127 46 37 37 133 339 565 565 558 637 781 781 872 813 813 783 748 681 681 614 635 454 454 230 264 159 89 89 51 46 40 40 32 15 15 17 18 46 46 50 12 1 8 8 39 32 13 13 0 nan 0 0 28 52 30 30 16 58 58 61 60 51 76 76 81 77 74 74 61 58 61 61 58 44 44 19 34 47 47 27 13 32 nan nan nan nan nan nan nan nan
nan nan 155 365 365 436 422 422 322 315 325 325 270 149 78 67 67 140 300 516 516 598 648 794 794 824 795 795 763 728 690 690 681 614 406 406 285 269 162 92 92 69 65 59 59 36 35 35 37 39 58 58 62 36 12 47 47 32 15 7 7 nan nan nan nan 34 63 34 34 8 29 29 40 46 65 70 70 82 81 70 70 55 56 55 55 67 52 52 7 22 25 25 28 14 5 nan nan nan nan nan nan nan nan
nan nan 165 348 348 415 400 400 360 353 332 332 248 174 99 88 88 165 306 554 554 578 630 777 777 777 747 747 744 738 699 699 659 536 308 308 342 273 165 114 114 90 68 46 46 40 40 40 27 29 33 33 54 42 31 49 49 19 13 2 2 nan nan nan nan 23 60 47 47 7 15 15 21 33 84 67 67 79 78 62 62 54 45 20 20 30 58 58 22 7 6 6 8 8 14 3 3 nan nan nan nan nan nan
nan nan 176 357 357 424 412 412 401 391 337 337 280 179 122 110 110 230 291 592 592 618 642 791 791 760 760 760 755 748 677 677 638 404 289 289 375 279 168 81 81 60 14 33 33 29 46 46 3 13 6 6 31 49 37 28 28 22 16 3 3 nan nan nan nan 12 43 40 40 8 5 5 28 34 72 61 61 73 74 61 61 47 37 16 16 19 38 38 26 0 0 0 0 nan 21 7 7 nan nan nan nan nan nan
nan 2 164 341 341 464 454 454 444 401 400 400 315 207 127 134 134 216 254 573 573 598 652 772 772 742 591 591 644 756 656 656 617 465 425 425 410 286 173 54 54 48 5 10 10 7 35 35 1 5 18 18 30 75 48 27 27 28 12 6 6 nan nan nan nan 3 25 37 37 14 4 4 31 27 57 56 56 66 78 59 59 48 38 33 33 33 17 17 11 nan nan nan nan nan nan 1 1 0 nan nan nan nan nan
nan 2 190 354 354 480 530 530 462 440 410 410 351 263 194 159 159 243 260 583 583 578 662 783 783 723 485 485 565 766 695 695 596 500 253 253 336 267 155 89 89 67 nan 2 2 0 nan nan 6 8 10 10 37 65 6 45 45 34 13 4 4 0 nan nan nan 1 12 29 29 20 7 7 18 24 61 56 56 58 77 64 64 50 32 36 36 38 19 19 3 14 nan nan nan nan nan 1 1 nan nan nan nan nan nan
nan 2 177 346 346 505 554 554 507 481 392 392 358 353 247 206 206 249 287 593 593 586 582 794 794 704 701 701 460 773 642 642 517 507 357 357 266 272 161 93 93 55 nan nan nan nan nan nan nan nan nan nan nan 30 10 55 55 29 8 1 1 2 0 nan nan nan 5 10 10 18 11 11 8 8 38 52 52 45 61 61 61 44 27 35 35 37 14 14 5 10 nan nan nan nan nan nan nan nan nan nan nan nan nan
nan 8 184 369 369 472 543 543 522 463 371 371 423 421 307 234 234 277 349 572 572 566 563 805 805 746 742 742 671 781 711 711 309 485 444 444 136 66 145 97 97 43 9 nan nan nan nan nan nan nan nan nan nan 19 60 63 63 36 13 0 0 1 2 0 0 1 0 nan nan 10 10 10 4 5 31 49 49 28 37 48 48 41 23 38 38 39 0 0 0 3 nan nan nan nan nan nan nan nan nan nan nan nan nan
nan 2 193 364 364 463 500 500 503 441 408 408 464 463 292 264 264 262 387 581 581 576 603 664 664 787 752 752 709 789 719 719 420 520 451 451 328 56 151 102 102 45 1 nan nan nan nan nan nan nan 0 0 11 26 47 51 51 26 6 0 0 0 2 1 1 0 nan nan nan 6 12 12 8 7 23 48 48 19 16 35 35 37 28 40 40 26 nan nan nan nan nan nan nan nan nan nan nan nan nan nan nan nan nan
nan 3 202 350 350 446 450 450 452 422 392 392 504 503 331 274 274 247 426 564 564 559 643 674 674 797 761 761 687 616 606 606 598 527 431 431 310 151 157 91 91 9 nan nan nan nan nan nan nan nan nan nan 5 16 33 45 45 22 11 1 1 nan 1 0 0 nan nan 1 1 5 15 15 16 12 17 37 37 16 8 25 25 25 28 17 17 19 nan nan nan nan nan nan nan nan nan nan nan nan nan nan nan nan nan
nan 4 185 328 328 337 398 398 461 407 403 403 515 546 399 337 337 255 409 547 547 543 743 744 744 775 738 738 696 427 556 556 605 505 359 359 195 156 124 47 47 nan nan nan nan nan nan nan nan nan 0 0 2 2 14 28 28 12 5 1 1 1 2 0 0 nan nan nan nan 2 14 14 6 1 nan 11 11 6 0 10 10 19 19 nan nan 10 5 5 nan nan nan nan nan nan nan nan nan nan nan nan nan nan nan
nan nan 102 226 226 297 366 366 429 430 571 571 633 603 509 360 360 278 433 570 570 593 587 733 733 792 753 753 682 640 403 403 528 408 318 318 205 89 35 27 27 nan nan nan nan nan nan nan nan nan nan nan 0 0 nan 16 16 16 1 1 1 0 0 nan nan nan nan 4 4 2 nan nan 1 5 5 nan nan nan nan 1 1 27 16 0 0 6 6 6 19 nan nan nan nan nan nan nan nan nan nan nan nan nan nan
nan nan 85 235 235 310 378 378 441 469 614 614 677 646 552 401 401 265 392 553 553 603 714 743 743 770 761 761 688 587 574 574 506 413 250 250 144 77 16 1 1 nan nan nan nan nan nan nan nan nan nan nan nan 0 nan 4 4 17 1 nan nan nan nan nan nan nan nan nan nan 3 nan nan 0 5 2 nan nan nan 0 nan nan 5 9 9 9 22 29 29 13 nan nan nan nan nan nan nan nan nan nan nan nan nan nan
nan nan 91 296 296 372 388 388 452 452 627 627 690 659 567 389 389 278 378 535 535 642 754 782 782 778 737 737 634 564 581 581 484 391 230 230 127 80 2 nan nan 0 nan nan nan nan nan nan nan nan nan nan nan nan nan 1 1 13 nan nan nan nan nan nan nan nan nan nan nan nan nan nan nan nan nan nan nan nan nan nan nan 0 3 13 13 23 30 30 2 nan nan nan nan nan nan nan nan nan nan nan nan nan nan
nan nan 84 308 308 381 422 422 404 463 641 641 703 674 582 350 350 195 338 574 574 710 764 728 728 753 743 743 610 460 560 560 463 319 234 234 132 102 11 nan nan 9 nan nan nan nan nan nan nan nan nan nan nan nan nan nan nan 5 0 nan nan nan nan nan nan nan nan nan nan nan nan nan nan nan nan nan nan nan nan nan nan nan nan 4 4 11 12 12 nan nan nan nan nan nan nan nan nan nan nan nan nan nan nan
nan nan 99 348 348 393 406 406 413 475 624 624 687 659 540 261 261 128 350 530 530 720 742 177 177 728 717 717 677 494 539 539 443 324 238 238 136 107 24 nan nan nan nan nan nan nan nan nan nan nan nan nan nan nan nan nan nan 1 4 0 0 1 nan nan nan nan nan nan nan nan nan nan nan nan nan nan nan nan nan nan nan nan nan nan nan nan nan nan nan nan nan nan nan nan nan nan nan nan nan nan nan nan nan
nan nan 114 365 365 411 420 420 425 430 579 579 643 557 497 377 377 290 336 488 488 673 662 508 508 702 692 692 623 557 519 519 424 304 218 218 139 94 27 nan nan nan nan nan nan nan nan nan nan nan nan nan nan nan nan nan nan 0 4 2 2 1 0 nan nan nan nan nan nan nan nan nan nan nan nan nan nan nan nan nan nan nan nan nan nan nan nan nan nan nan nan nan nan nan nan nan nan nan nan nan nan nan nan
nan nan 145 387 387 431 408 408 382 414 565 565 540 455 424 388 388 276 347 472 472 627 613 572 572 620 668 668 600 562 288 288 276 311 199 199 143 80 30 nan nan nan nan nan nan nan nan nan nan nan nan nan nan nan nan nan nan nan 2 1 1 0 nan nan nan nan nan nan nan nan nan nan nan nan nan nan nan nan nan nan nan nan nan nan nan nan nan nan nan nan nan nan nan nan nan nan nan nan nan nan nan nan nan
nan nan 204 380 380 421 395 395 339 344 491 491 525 468 409 347 347 288 383 482 482 526 565 551 551 598 616 616 577 401 87 87 281 292 206 206 148 68 4 nan nan nan nan nan nan nan nan nan nan nan nan nan nan nan nan nan nan nan nan 0 0 nan nan nan nan nan nan nan nan nan nan nan nan nan nan nan nan nan nan nan nan nan nan nan nan nan nan nan nan nan 0 0 nan nan nan nan nan nan nan nan nan nan nan
nan 24 242 342 342 381 381 381 351 302 389 389 235 425 369 335 335 274 393 490 490 251 545 589 589 578 538 538 526 406 73 73 284 297 189 189 134 74 1 nan nan nan nan nan nan nan nan nan nan nan nan nan nan nan nan nan nan nan nan nan nan nan nan nan nan nan nan nan nan nan nan nan nan nan nan nan nan nan nan nan nan nan nan nan nan nan nan nan nan nan nan nan nan nan nan nan nan nan nan nan nan nan nan
nan 89 259 359 359 367 337 337 308 260 400 400 380 412 383 177 177 313 430 498 498 485 499 570 570 559 518 518 505 411 226 226 216 229 218 218 100 47 44 nan nan nan nan nan nan nan nan nan nan nan nan nan nan nan nan nan nan nan nan nan nan nan nan nan nan nan nan nan nan nan nan nan nan nan nan nan nan nan nan nan nan nan nan nan nan nan nan nan nan nan nan nan nan nan nan nan nan nan nan nan nan nan nan
nan 162 304 346 346 322 320 320 293 272 387 387 452 400 371 192 192 327 443 481 481 494 454 551 551 406 472 472 514 418 328 328 269 283 223 223 104 51 48 0 0 nan nan nan nan nan nan nan nan nan nan nan nan nan nan nan nan nan nan nan nan nan nan nan nan 0 0 nan nan nan nan nan 0 nan nan nan nan nan nan nan nan nan nan nan nan nan nan nan nan nan nan nan nan nan nan nan nan nan nan nan nan nan nan
55 254 318 328 328 330 302 302 280 235 375 375 355 414 359 279 279 343 430 414 414 476 489 531 531 520 565 565 468 399 335 335 352 0 229 229 151 124 51 7 7 nan nan nan nan nan nan nan nan nan nan nan nan nan nan nan nan nan nan nan nan nan nan nan nan nan nan nan nan nan 0 0 1 2 nan nan nan nan nan nan nan nan nan nan nan nan nan nan nan nan nan nan nan nan nan nan nan nan nan nan nan nan nan
142 265 329 336 336 338 314 314 294 201 363 363 69 401 347 294 294 358 394 427 427 487 393 406 406 501 519 519 451 382 317 317 334 114 237 237 156 129 54 1 1 nan nan nan nan nan nan nan nan nan nan nan nan nan nan nan nan nan nan nan nan nan nan nan nan nan nan nan nan 0 1 1 2 3 2 0 0 nan nan nan nan nan nan nan nan nan nan nan nan nan nan nan nan nan nan nan nan nan nan nan nan nan nan
224 302 338 318 318 322 327 327 310 219 327 327 385 415 360 357 357 424 459 491 491 444 170 225 225 430 446 446 489 394 327 327 265 nan 244 244 186 134 93 12 12 nan nan nan nan nan nan nan nan nan nan nan nan nan nan nan nan nan nan nan nan nan 0 nan nan nan nan 1 1 2 2 2 1 1 1 2 2 0 nan nan nan nan nan nan nan nan nan nan nan nan nan nan nan nan nan nan nan nan nan nan nan nan nan
259 338 346 358 358 309 313 313 297 214 321 321 428 426 397 419 419 488 524 503 503 428 287 254 254 162 510 510 558 488 418 418 324 89 253 253 217 140 62 45 45 5 nan nan nan nan nan nan nan nan nan nan nan nan nan nan nan nan nan nan nan nan nan nan nan nan nan 0 0 3 3 3 1 0 0 1 1 2 1 nan nan nan nan nan nan nan nan nan nan nan nan nan nan nan nan nan nan nan nan nan nan nan nan
294 346 325 311 311 322 327 327 339 233 313 313 411 279 380 508 508 551 534 511 511 461 418 137 137 297 549 549 569 558 458 458 389 272 261 261 224 190 0 34 34 10 0 nan nan nan nan nan nan nan nan nan nan nan nan nan nan nan nan nan nan nan nan nan nan nan nan nan nan 2 5 5 4 0 0 0 0 nan 0 0 0 nan nan nan nan nan nan nan nan nan nan nan nan nan nan nan nan nan nan nan nan nan nan
275 354 334 350 350 333 341 341 250 228 300 300 419 387 520 517 517 560 568 518 518 445 402 292 292 303 420 420 466 540 560 560 490 337 272 272 259 197 54 54 54 25 0 nan nan nan nan nan nan nan nan nan nan nan nan nan nan nan nan nan nan nan nan nan nan nan nan nan nan 0 3 3 5 2 nan nan nan nan nan 0 0 nan nan nan nan nan 0 0 nan 0 nan nan nan nan nan nan nan nan nan nan nan nan nan
231 308 301 326 326 315 298 298 222 198 285 285 428 505 587 610 610 623 603 554 554 508 437 371 371 310 350 350 393 495 574 574 542 385 315 315 276 213 157 96 96 30 0 nan nan nan nan nan nan nan nan nan nan nan nan nan nan nan nan nan nan nan nan nan nan nan nan nan nan nan 0 0 nan 2 0 nan nan nan nan nan nan nan nan nan nan nan nan nan 0 1 0 0 nan nan nan nan nan nan nan nan nan nan nan
230 236 293 340 340 324 285 285 237 208 321 321 470 549 574 536 536 692 644 594 594 518 446 380 380 318 333 333 375 476 529 529 529 434 368 368 303 262 201 130 130 56 10 nan nan nan nan nan nan nan nan nan nan nan nan nan nan nan nan nan nan nan nan nan nan nan nan nan nan nan nan nan nan nan nan nan nan nan nan nan nan nan nan nan nan nan nan nan nan 1 0 0 nan nan nan nan nan nan nan nan nan nan nan
186 316 407 351 351 311 159 159 107 236 359 359 460 567 646 664 664 708 688 635 635 556 457 390 390 327 341 341 384 402 453 453 539 418 328 328 315 277 242 168 168 84 26 0 0 nan nan nan nan nan nan nan nan nan nan nan nan nan nan nan nan nan nan nan nan nan nan nan nan nan nan nan nan nan nan nan nan nan nan nan nan nan 2 1 1 nan nan nan nan 0 0 0 nan nan nan nan nan nan nan nan nan nan nan
268 378 336 338 338 325 213 213 169 268 372 372 475 555 634 681 681 726 704 678 678 570 470 402 402 337 351 351 420 411 462 462 486 370 283 283 323 286 228 175 175 109 56 13 13 nan nan nan nan nan nan nan nan nan nan nan nan nan nan nan nan nan nan nan nan nan nan nan nan nan nan nan nan nan nan 0 0 nan 0 5 5 7 7 6 6 nan nan nan nan nan 0 0 nan nan nan nan nan nan nan nan nan nan nan
338 413 357 323 323 278 272 272 265 304 385 385 464 545 623 668 668 682 691 637 637 585 457 389 389 349 336 336 459 422 443 443 465 401 366 366 328 267 234 182 182 136 78 26 26 4 nan nan 0 0 0 0 nan nan nan nan nan nan nan nan nan nan nan nan nan nan nan nan nan nan nan nan nan nan 0 0 0 4 5 9 9 10 8 3 3 nan nan nan nan nan 0 0 0 nan nan nan nan nan nan nan nan nan nan
225 381 325 301 301 285 310 310 303 345 401 401 454 506 581 654 654 667 677 654 654 573 445 403 403 336 322 322 416 380 399 399 363 436 371 371 336 299 241 214 214 168 105 42 42 13 0 0 0 1 1 1 0 nan nan nan nan nan nan nan nan nan nan nan nan nan nan 0 0 nan nan nan 1 0 1 1 1 2 4 10 10 8 5 1 1 nan nan nan nan nan 1 1 0 nan nan nan nan nan nan nan nan nan nan
51 246 328 249 249 339 336 336 357 347 377 377 512 532 578 592 592 605 645 652 652 545 474 430 430 361 348 348 389 326 nan nan 206 349 394 394 387 356 293 238 238 234 183 83 83 31 2 2 nan nan 0 0 0 nan nan nan nan nan nan nan nan nan nan nan nan 0 0 0 0 nan nan nan nan 0 1 1 1 0 nan nan nan nan nan nan nan nan nan nan nan 0 4 4 5 3 1 1 1 0 nan nan nan nan nan
27 193 346 319 319 325 371 371 369 333 390 390 495 484 529 602 602 585 656 634 634 558 486 443 443 375 336 336 349 338 204 204 268 283 327 327 376 316 280 248 248 220 169 107 107 49 0 0 nan nan nan nan nan nan nan nan nan nan nan nan nan nan nan nan nan nan nan nan nan nan nan nan nan nan nan 0 0 nan nan nan nan nan nan nan nan nan nan nan nan nan 3 3 4 4 4 4 4 3 0 nan nan nan nan
31 382 307 332 332 365 384 384 383 345 400 400 474 489 564 579 579 593 605 615 615 570 499 430 430 363 348 348 335 298 239 239 254 271 262 262 280 275 242 188 188 184 179 114 114 68 1 1 nan nan nan nan nan nan nan nan nan nan nan nan nan nan nan nan nan nan nan nan nan nan nan nan nan nan nan nan nan nan 0 nan nan nan nan nan nan nan nan nan nan nan 1 1 2 1 2 3 3 0 nan nan nan nan nan
11 519 246 343 343 405 399 399 369 355 379 379 449 436 481 553 553 540 556 568 568 526 485 391 391 325 336 336 322 285 226 226 216 258 251 251 243 235 182 155 155 150 146 87 87 45 1 1 nan nan nan nan nan nan nan nan nan nan nan nan nan nan nan nan nan nan nan nan nan nan nan nan nan nan nan nan nan nan nan nan nan nan nan nan nan nan nan nan nan nan nan nan 0 nan nan nan nan nan nan nan nan nan nan
44 382 252 352 352 389 411 411 352 307 275 275 367 382 427 470 470 458 505 521 521 482 444 353 353 288 323 323 310 297 212 212 178 245 265 265 231 224 171 123 123 120 116 78 78 36 7 7 nan nan nan nan nan nan nan nan nan nan nan nan nan nan nan nan nan nan nan nan nan nan nan nan nan nan nan nan nan nan nan nan nan nan nan nan nan nan nan nan nan nan nan nan nan nan nan nan nan nan nan nan nan nan nan
57 456 340 326 326 419 390 390 356 282 273 273 312 304 347 388 388 378 372 419 419 383 348 263 263 228 286 286 298 260 200 200 166 182 200 200 194 189 162 94 94 91 130 89 89 56 1 1 nan nan nan nan nan nan nan nan nan nan nan nan nan nan nan nan nan nan nan nan nan nan nan nan nan nan nan nan nan nan nan nan nan nan nan nan nan nan nan nan nan nan nan nan nan nan nan nan nan nan nan nan nan nan nan
14 442 283 271 271 389 360 360 327 277 268 268 285 281 296 309 309 302 325 294 294 287 257 202 202 193 275 275 286 248 189 189 156 146 139 139 158 156 131 67 67 65 102 83 83 51 4 4 nan nan nan nan nan nan nan nan nan nan nan nan nan nan nan nan nan nan nan nan nan nan nan nan nan nan nan nan nan nan nan nan nan nan nan nan nan nan nan nan nan nan nan nan nan nan nan nan nan nan nan nan nan nan nan
nan 130 469 537 537 276 325 325 290 242 237 237 235 232 247 261 261 257 256 276 276 247 219 191 191 183 265 265 250 212 203 203 145 136 105 105 126 125 82 45 45 45 60 20 20 48 4 4 nan nan nan nan nan nan nan nan nan nan nan nan nan nan nan nan nan nan nan nan nan nan nan nan nan nan nan nan nan nan nan nan nan nan nan nan nan nan nan nan nan nan nan nan nan nan nan nan nan nan nan nan nan nan nan
nan 1 522 882 882 352 172 172 185 209 187 187 234 233 249 264 264 262 261 258 258 231 205 202 202 174 231 231 240 203 169 169 135 125 97 97 96 76 77 44 44 23 43 31 31 44 12 12 nan nan nan nan nan nan nan nan nan nan nan nan nan nan nan nan nan nan nan nan nan nan nan nan nan nan nan nan nan nan nan nan nan nan nan nan nan nan nan nan nan nan nan nan nan nan nan nan nan nan nan nan nan nan nan
nan nan 199 746 746 641 164 164 174 181 184 184 210 234 228 244 244 219 240 238 238 213 213 190 190 208 244 244 254 193 158 158 124 92 68 68 88 69 55 33 33 17 25 33 33 42 14 14 0 nan nan nan nan nan nan nan nan nan nan nan nan nan nan nan nan nan nan nan nan nan nan nan nan nan nan nan nan nan nan nan nan nan nan nan nan nan nan nan nan nan nan nan nan nan nan nan nan nan nan nan nan nan nan
nan nan nan 317 317 637 320 320 121 131 183 183 208 233 253 224 224 222 220 219 219 219 220 222 222 220 233 233 218 181 171 171 113 83 60 60 61 48 54 46 46 18 26 34 34 21 10 10 3 nan nan nan nan nan nan nan nan nan nan nan nan nan nan nan nan nan nan nan nan nan nan nan nan nan nan nan nan nan nan nan nan nan nan nan nan nan nan nan nan nan nan nan nan nan nan nan nan nan nan nan nan nan nan
nan nan nan 60 60 349 435 435 107 98 162 162 188 231 253 228 228 225 225 249 249 227 229 231 231 229 242 242 205 194 136 136 80 74 39 39 29 47 41 35 35 26 16 16 16 16 15 15 2 nan nan nan nan nan nan nan nan nan nan nan nan nan nan nan nan nan nan nan nan nan nan nan nan nan nan nan nan nan nan nan nan nan nan nan nan nan nan nan nan nan nan nan nan nan nan nan nan nan nan nan nan nan nan
nan nan nan nan nan 68 84 84 134 169 101 101 140 192 211 233 233 230 232 284 284 261 261 263 263 236 226 226 217 184 149 149 70 49 25 25 29 48 43 35 35 24 24 15 15 9 8 8 4 0 nan nan nan nan nan nan nan nan nan nan nan nan nan nan nan nan nan nan nan nan nan nan nan nan nan nan nan nan nan nan nan nan nan nan nan nan nan nan nan nan nan nan nan nan nan nan nan nan nan nan nan nan nan
nan nan nan nan nan nan 16 16 91 115 132 132 148 171 161 232 232 244 294 297 297 272 248 246 246 217 236 236 207 174 115 115 62 34 9 9 30 78 71 48 48 35 22 33 33 13 5 5 4 0 nan nan nan nan nan nan nan nan nan nan nan nan nan nan nan nan nan nan nan nan nan nan nan nan nan nan nan nan nan nan nan nan nan nan nan nan nan nan nan nan nan nan nan nan nan nan nan nan nan nan nan nan nan
nan nan nan nan nan nan nan nan nan 57 144 144 188 174 144 169 169 176 99 264 264 260 210 205 205 201 223 223 197 164 105 105 74 46 18 18 41 91 98 88 88 74 46 44 44 18 10 10 2 nan nan nan nan nan nan nan nan nan nan nan nan nan nan nan nan nan nan nan nan nan nan nan nan nan nan nan nan nan nan nan nan nan nan nan nan nan nan nan nan nan nan nan nan nan nan nan nan nan nan nan nan nan nan
nan nan nan nan nan nan nan nan nan nan 14 14 69 136 147 197 197 65 117 256 256 249 218 212 212 211 190 190 187 154 119 119 73 58 37 37 41 73 94 99 99 87 71 68 68 63 32 32 12 1 nan nan nan nan nan nan nan nan nan nan nan nan nan nan nan nan nan nan nan nan nan nan nan nan nan nan nan nan nan nan nan nan nan nan nan nan nan nan nan nan nan nan nan nan nan nan nan nan nan nan nan nan nan
nan nan nan nan nan nan nan nan nan nan nan nan nan nan 140 181 181 160 238 275 275 266 234 206 206 204 181 181 154 144 110 110 86 71 49 49 53 84 90 95 95 98 96 92 92 86 40 40 26 8 3 3 0 nan nan nan nan nan nan nan nan nan nan nan nan nan nan nan nan nan nan nan nan nan nan nan nan nan nan nan nan nan nan nan nan nan nan nan nan nan nan nan nan nan nan nan nan nan nan nan nan nan nan